DW8871 Weather Reports


Display with metric or nautical units.
time (UTC)temp
F
wind
direction
speed
MPH
gust
MPH
rain 1hr
in
rain 24hr
in
rain mn
in
humidity
%
barometer
mb
20260901040038 79 0 0.0 3.0 0.00 0.00 0.00 69 1014.7
20260901034537 78 260 0.0 4.0 0.00 0.00 0.00 71 1014.5
20260901033052 77 0 0.0 2.0 0.00 0.00 0.00 77 1014.3
20260901031537 77 0 0.0 1.0 0.00 0.00 0.00 82 1014.3
20260901030037 77 0 0.0 1.0 0.00 0.00 0.00 85 1014.2
20260901030021 78 285 0.0 1.0 0.00 0.00 0.00 86 1013.1
20260901024535 78 0 0.0 0.0 0.00 0.00 0.00 86 1014.2
20260901023034 78 0 0.0 0.0 0.00 0.00 0.00 85 1014.1
20260901021556 79 0 0.0 0.0 0.00 0.00 0.00 82 1013.9
20260901020057 80 285 0.0 0.0 0.00 0.00 0.00 80 1012.7
20260901020038 80 0 0.0 0.0 0.00 0.00 0.00 80 1013.8
20260901014533 81 0 0.0 0.0 0.00 0.00 0.00 77 1013.7
20260901013049 82 0 0.0 0.0 0.00 0.00 0.00 75 1013.6
20260901011551 83 0 0.0 0.0 0.00 0.00 0.00 74 1013.4
20260901010034 85 0 0.0 0.0 0.00 0.00 0.00 69 1013.3
20260901010020 86 285 0.0 0.0 0.00 0.00 0.00 70 1012.3
20260901004540 88 0 0.0 0.0 0.00 0.00 0.00 65 1013.2
20260901003046 90 0 0.0 0.0 0.00 0.00 0.00 61 1013.3
20260901001536 93 0 0.0 0.0 0.00 0.00 0.00 56 1013.2
20260901000036 94 0 0.0 3.0 0.00 0.00 0.00 50 1013.3
20260901000025 94 285 0.0 2.0 0.00 0.00 0.00 50 1012.2
20260831234534 94 267 1.0 4.0 0.00 0.00 0.00 50 1013.2
20260831233037 95 265 2.0 6.0 0.00 0.00 0.00 46 1013.3
20260831231534 96 255 3.0 9.0 0.00 0.00 0.00 44 1013.3
20260831230039 97 259 3.0 8.0 0.00 0.00 0.00 44 1013.2
20260831230019 98 259 3.0 7.0 0.00 0.00 0.00 45 1012.1
20260831224534 98 245 2.0 9.0 0.00 0.00 0.00 42 1013.2
20260831223044 98 284 3.0 9.0 0.00 0.00 0.00 42 1013.3
20260831221550 98 291 4.0 10.0 0.00 0.00 0.00 40 1013.4
20260831220038 99 265 2.0 6.0 0.00 0.00 0.00 42 1013.3
20260831220027 99 263 3.0 5.0 0.00 0.00 0.00 42 1012.2
20260831214534 99 268 2.0 9.0 0.00 0.00 0.00 41 1013.5
20260831213035 99 288 3.0 7.0 0.00 0.00 0.00 39 1013.5
20260831211544 99 296 1.0 4.0 0.00 0.00 0.00 43 1013.5
20260831210035 99 265 3.0 10.0 0.00 0.00 0.00 40 1013.7
20260831210023 99 261 3.0 9.0 0.00 0.00 0.00 41 1012.5
20260831204543 99 306 1.0 7.0 0.00 0.00 0.00 41 1013.8
20260831203046 98 277 3.0 11.0 0.00 0.00 0.00 40 1013.9
20260831201545 97 243 3.0 10.0 0.00 0.00 0.00 44 1014.0
20260831200041 97 288 4.0 12.0 0.00 0.00 0.00 43 1013.8
20260831200021 97 292 5.0 11.0 0.00 0.00 0.00 43 1012.7
20260831194540 96 323 3.0 11.0 0.00 0.00 0.00 43 1013.9
20260831193034 95 288 4.0 12.0 0.00 0.00 0.00 45 1014.0
20260831191533 95 256 3.0 12.0 0.00 0.00 0.00 45 1014.0
20260831190052 95 246 6.0 12.0 0.00 0.00 0.00 45 1014.2
20260831190031 95 275 7.0 11.0 0.00 0.00 0.00 45 1012.9
20260831184535 94 237 7.0 14.0 0.00 0.00 0.00 48 1014.2
20260831183035 93 274 4.0 12.0 0.00 0.00 0.00 48 1014.3
20260831181535 93 275 5.0 10.0 0.00 0.00 0.00 48 1014.6
20260831180049 92 238 7.0 11.0 0.00 0.00 0.00 49 1014.6
20260831180024 93 290 6.0 10.0 0.00 0.00 0.00 49 1013.4
20260831174536 91 306 6.0 14.0 0.00 0.00 0.00 52 1014.7
20260831173037 91 265 6.0 15.0 0.00 0.00 0.00 53 1014.7
20260831171538 90 291 6.0 12.0 0.00 0.00 0.00 52 1014.9
20260831170036 89 265 6.0 11.0 0.00 0.00 0.00 52 1015.0
20260831170022 90 255 6.0 10.0 0.00 0.00 0.00 53 1013.8
20260831164541 89 298 4.0 11.0 0.00 0.00 0.00 55 1015.0
20260831163037 88 277 6.0 11.0 0.00 0.00 0.00 55 1014.9
20260831161539 87 10 4.0 13.0 0.00 0.00 0.00 57 1015.0
20260831160039 86 213 4.0 8.0 0.00 0.00 0.00 59 1013.9
20260831160037 86 213 3.0 12.0 0.00 0.00 0.00 59 1015.0
20260831154600 85 264 6.0 11.0 0.00 0.00 0.00 58 1015.0
20260831153039 85 289 5.0 12.0 0.00 0.00 0.00 58 1015.1
20260831151534 85 255 5.0 13.0 0.00 0.00 0.00 60 1014.9
20260831150037 83 347 6.0 11.0 0.00 0.00 0.00 61 1014.9
20260831150030 84 329 5.0 10.0 0.00 0.00 0.00 62 1013.7
20260831144545 82 296 4.0 11.0 0.00 0.00 0.00 63 1014.9
20260831143036 81 306 7.0 15.0 0.00 0.00 0.00 63 1014.9
20260831141533 80 272 7.0 15.0 0.00 0.00 0.00 66 1015.0
20260831140039 78 296 6.0 12.0 0.00 0.00 0.00 67 1015.0
20260831140021 78 265 5.0 10.0 0.00 0.00 0.00 68 1014.0
20260831134535 78 271 7.0 13.0 0.00 0.00 0.00 67 1015.0
20260831133037 77 286 7.0 13.0 0.00 0.00 0.00 67 1014.8
20260831131537 77 295 5.0 14.0 0.00 0.00 0.00 67 1014.9
20260831130039 77 313 5.0 13.0 0.00 0.00 0.00 67 1014.9
20260831130020 77 313 6.0 12.0 0.00 0.00 0.00 68 1013.8
20260831124535 77 247 6.0 11.0 0.00 0.00 0.00 67 1014.9
20260831123039 76 248 5.0 14.0 0.00 0.00 0.00 67 1014.6
20260831121536 76 246 4.0 12.0 0.00 0.00 0.00 67 1014.5
20260831120041 76 309 2.0 10.0 0.00 0.00 0.00 66 1014.4
20260831120033 77 271 3.0 9.0 0.00 0.00 0.00 67 1013.3
20260831114539 76 270 4.0 10.0 0.00 0.00 0.00 66 1013.9
20260831113039 77 280 5.0 11.0 0.00 0.00 0.00 65 1014.0
20260831111536 77 266 6.0 11.0 0.00 0.00 0.00 65 1013.9
20260831110042 78 242 5.0 10.0 0.00 0.00 0.00 64 1013.9
20260831110020 78 292 5.0 9.0 0.00 0.00 0.00 64 1012.8
20260831104536 78 265 4.0 9.0 0.00 0.00 0.00 63 1013.8
20260831103034 78 263 3.0 9.0 0.00 0.00 0.00 63 1013.7
20260831101549 78 298 4.0 11.0 0.00 0.00 0.00 62 1013.3
20260831100052 79 267 5.0 8.0 0.00 0.00 0.00 63 1012.3
20260831100034 78 281 4.0 9.0 0.00 0.00 0.00 62 1013.3
20260831094535 78 269 4.0 11.0 0.00 0.00 0.00 63 1013.0
20260831093039 78 256 3.0 9.0 0.00 0.00 0.00 64 1012.9
20260831091551 78 252 4.0 10.0 0.00 0.00 0.00 63 1013.0
20260831090037 78 247 5.0 11.0 0.00 0.00 0.00 63 1012.7
20260831090023 79 268 5.0 10.0 0.00 0.00 0.00 63 1011.8
20260831084536 78 254 4.0 10.0 0.00 0.00 0.00 62 1012.7
20260831083035 79 240 3.0 7.0 0.00 0.00 0.00 61 1012.8
20260831081539 80 273 3.0 9.0 0.00 0.00 0.00 59 1012.9
20260831080058 80 259 4.0 9.0 0.00 0.00 0.00 59 1012.8
20260831080024 80 271 4.0 8.0 0.00 0.00 0.00 59 1011.8
20260831074535 80 267 2.0 8.0 0.00 0.00 0.00 58 1012.7
20260831073101 81 287 3.0 9.0 0.00 0.00 0.00 57 1012.6
20260831071546 82 282 3.0 7.0 0.00 0.00 0.00 56 1012.6
20260831070036 82 269 3.0 9.0 0.00 0.00 0.00 54 1012.6
20260831070032 83 257 3.0 8.0 0.00 0.00 0.00 55 1011.5
20260831064541 83 263 3.0 10.0 0.00 0.00 0.00 54 1012.5
20260831063043 82 269 4.0 9.0 0.00 0.00 0.00 55 1012.5
20260831061536 83 257 4.0 8.0 0.00 0.00 0.00 55 1012.3
20260831060037 83 266 4.0 9.0 0.00 0.00 0.00 54 1012.3
20260831060024 84 259 4.0 8.0 0.00 0.00 0.00 55 1011.2
20260831054535 84 260 3.0 10.0 0.00 0.00 0.00 54 1012.2
20260831053040 84 256 4.0 9.0 0.00 0.00 0.00 54 1012.2
20260831051539 84 279 4.0 9.0 0.00 0.00 0.00 54 1012.1
20260831050037 84 300 3.0 11.0 0.00 0.00 0.00 53 1012.1
20260831050016 85 300 4.0 8.0 0.00 0.00 0.00 53 1010.9
20260831044546 85 252 5.0 10.0 0.00 0.00 0.00 52 1011.9
20260831043034 85 284 4.0 12.0 0.00 0.00 0.00 52 1011.9
20260831041544 85 256 5.0 11.0 0.00 0.00 0.00 52 1011.8